Weather History for Le Mars, IA

Change the Weather History Date:

Monday, January 2, 2012

  Actual Average Record
Temperature  
Mean Temperature 20 °F -  
Max Temperature 26 °F 26 °F 57 °F (2004)
Min Temperature 15 °F 7 °F -14 °F (1970)
Degree Days  
Heating Degree Days 44    
Moisture  
Dew Point 8 °F    
Average Humidity 59    
Maximum Humidity 73    
Minimum Humidity 37    
Precipitation  
Precipitation 0.00 in - - ()
Sea Level Pressure  
Sea Level Pressure 30.53 in    
Wind  
Wind Speed 13 mph (NNW)    
Max Wind Speed 20 mph    
Max Gust Speed 24 mph    
Visibility 10 miles    
Events      
Averages and records for this station are not official NWS values.
T = Trace of Precipitation, MM = Missing Value Source: NWS Daily Summary

Daily Weather History Graph

Daily Weather History Graph

Search for Another Location

Airport:

Trip Planner

Search our weather history database for the weather conditions in past years. The results will help you decide how hot, cold, wet, or windy it might be!

Date:

Astronomy

Jan. 02, 2012 Rise Set
Actual Time 7:55 AM CST 5:02 PM CST
Civil Twilight 7:23 AM CST 5:34 PM CST
Nautical Twilight 6:47 AM CST 6:09 PM CST
Astronomical Twilight 6:13 AM CST 6:44 PM CST
Moon 12:22 PM CST 1:45 AM CST
Length of Visible Light 10h 10m
Length of Day
9h 06m
Waxing Gibbous, 64% of the Moon is Illuminated
Jan 2
Waxing Gibbous
Jan 9
Full
Jan 16
Last Quarter
Jan 23
New
Jan 30
First Quarter

Hourly Weather History & Observations

Time (CST) Temp. Windchill Dew Point Humidity Pressure Visibility Wind Dir Wind Speed Gust Speed Precip Events Conditions
12:15 AM 23.0 °F 8.3 °F 12.2 °F 63% 30.49 in 10.0 mi NW 19.6 mph 24.2 mph N/A   Clear
12:35 AM 21.2 °F 6.8 °F 12.2 °F 68% 30.50 in 10.0 mi NW 17.3 mph 24.2 mph N/A   Clear
12:55 AM 21.2 °F 6.8 °F 12.2 °F 68% 30.50 in 10.0 mi NW 17.3 mph 23.0 mph N/A   Clear
1:15 AM 21.2 °F 7.8 °F 12.2 °F 68% 30.50 in 10.0 mi NW 15.0 mph - N/A   Clear
1:35 AM 21.2 °F 7.3 °F 10.4 °F 63% 30.50 in 10.0 mi NW 16.1 mph 21.9 mph N/A   Clear
1:55 AM 21.2 °F 7.3 °F 10.4 °F 63% 30.51 in 10.0 mi NW 16.1 mph 23.0 mph N/A   Clear
2:35 AM 19.4 °F 5.5 °F 10.4 °F 68% 30.51 in 10.0 mi NW 15.0 mph 21.9 mph N/A   Clear
2:55 AM 19.4 °F 5.0 °F 10.4 °F 68% 30.51 in 10.0 mi NW 16.1 mph 20.7 mph N/A   Clear
3:15 AM 19.4 °F 5.0 °F 10.4 °F 68% 30.52 in 10.0 mi NW 16.1 mph 23.0 mph N/A   Clear
3:35 AM 19.4 °F 6.6 °F 10.4 °F 68% 30.51 in 10.0 mi NW 12.7 mph 21.9 mph N/A   Clear
3:55 AM 19.4 °F 6.6 °F 8.6 °F 63% 30.51 in 10.0 mi NW 12.7 mph - N/A   Clear
4:35 AM 17.6 °F 6.4 °F 8.6 °F 68% 30.50 in 10.0 mi NW 9.2 mph - N/A   Clear
4:55 AM 17.6 °F 5.7 °F 8.6 °F 68% 30.51 in 10.0 mi NW 10.4 mph - N/A   Clear
5:15 AM 17.6 °F 5.0 °F 8.6 °F 68% 30.50 in 10.0 mi NW 11.5 mph - N/A   Clear
5:35 AM 17.6 °F 4.3 °F 8.6 °F 68% 30.50 in 10.0 mi NW 12.7 mph 23.0 mph N/A   Clear
5:55 AM 17.6 °F 4.3 °F 8.6 °F 68% 30.50 in 10.0 mi NW 12.7 mph 19.6 mph N/A   Clear
6:15 AM 15.8 °F 4.2 °F 8.6 °F 73% 30.51 in 10.0 mi NNW 9.2 mph - N/A   Clear
6:35 AM 15.8 °F 3.4 °F 8.6 °F 73% 30.51 in 10.0 mi NNW 10.4 mph - N/A   Clear
6:55 AM 15.8 °F 2.1 °F 8.6 °F 73% 30.51 in 10.0 mi NNW 12.7 mph - N/A   Clear
7:15 AM 15.8 °F 2.7 °F 8.6 °F 73% 30.52 in 10.0 mi NW 11.5 mph 16.1 mph N/A   Clear
7:35 AM 15.8 °F 3.4 °F 8.6 °F 73% 30.53 in 10.0 mi NNW 10.4 mph - N/A   Clear
7:55 AM 15.8 °F 2.7 °F 8.6 °F 73% 30.54 in 10.0 mi NW 11.5 mph - N/A   Clear
8:15 AM 15.8 °F 4.2 °F 8.6 °F 73% 30.55 in 10.0 mi NNW 9.2 mph - N/A   Clear
8:35 AM 15.8 °F 4.2 °F 8.6 °F 73% 30.56 in 10.0 mi NNW 9.2 mph - N/A   Clear
8:55 AM 17.6 °F 6.4 °F 10.4 °F 73% 30.57 in 10.0 mi NNW 9.2 mph - N/A   Clear
9:15 AM 17.6 °F 6.4 °F 10.4 °F 73% 30.57 in 10.0 mi NNW 9.2 mph - N/A   Clear
9:35 AM 19.4 °F 6.6 °F 10.4 °F 68% 30.58 in 10.0 mi NNW 12.7 mph - N/A   Clear
10:15 AM 21.2 °F 7.3 °F 8.6 °F 58% 30.59 in 10.0 mi NNW 16.1 mph 20.7 mph N/A   Clear
10:35 AM 21.2 °F 7.8 °F 8.6 °F 58% 30.59 in 10.0 mi North 15.0 mph 19.6 mph N/A   Clear
10:55 AM 21.2 °F 8.9 °F 8.6 °F 58% 30.59 in 10.0 mi North 12.7 mph 18.4 mph N/A   Clear
11:15 AM 21.2 °F 7.3 °F 8.6 °F 58% 30.58 in 10.0 mi NNW 16.1 mph 23.0 mph N/A   Clear
11:35 AM 23.0 °F 9.6 °F 6.8 °F 50% 30.58 in 10.0 mi North 16.1 mph 21.9 mph N/A   Clear
11:55 AM 24.8 °F 12.4 °F 6.8 °F 46% 30.58 in 10.0 mi North 15.0 mph 21.9 mph N/A   Clear
12:15 PM 24.8 °F 13.4 °F 6.8 °F 46% 30.57 in 10.0 mi NNW 12.7 mph - N/A   Clear
12:35 PM 24.8 °F 14.0 °F 6.8 °F 46% 30.56 in 10.0 mi NNW 11.5 mph - N/A   Clear
12:55 PM 24.8 °F 13.4 °F 6.8 °F 46% 30.56 in 10.0 mi NNW 12.7 mph 18.4 mph N/A   Clear
1:15 PM 26.6 °F 15.2 °F 5.0 °F 40% 30.55 in 10.0 mi NNW 13.8 mph - N/A   Clear
1:35 PM 26.6 °F 14.3 °F 5.0 °F 40% 30.55 in 10.0 mi NNW 16.1 mph - N/A   Clear
2:15 PM 26.6 °F 15.7 °F 5.0 °F 40% 30.54 in 10.0 mi NNW 12.7 mph 17.3 mph N/A   Clear
2:35 PM 26.6 °F 16.8 °F 3.2 °F 37% 30.54 in 10.0 mi North 10.4 mph 16.1 mph N/A   Clear
2:55 PM 26.6 °F 17.5 °F 3.2 °F 37% 30.54 in 10.0 mi North 9.2 mph - N/A   Clear
3:15 PM 26.6 °F 16.2 °F 3.2 °F 37% 30.54 in 10.0 mi NNW 11.5 mph - N/A   Clear
3:35 PM 26.6 °F 17.5 °F 5.0 °F 40% 30.54 in 10.0 mi North 9.2 mph - N/A   Clear
3:55 PM 26.6 °F 19.1 °F 3.2 °F 37% 30.54 in 10.0 mi North 6.9 mph - N/A   Clear
4:15 PM 24.8 °F 17.9 °F 5.0 °F 43% 30.54 in 10.0 mi North 5.8 mph - N/A   Clear
4:35 PM 24.8 °F 19.1 °F 6.8 °F 46% 30.53 in 10.0 mi North 4.6 mph - N/A   Clear
4:55 PM 23.0 °F 18.4 °F 6.8 °F 50% 30.53 in 10.0 mi North 3.5 mph - N/A   Clear
5:15 PM 21.2 °F - 6.8 °F 54% 30.53 in 10.0 mi Calm Calm - N/A   Clear
5:35 PM 17.6 °F - 8.6 °F 68% 30.52 in 10.0 mi Calm Calm - N/A   Clear
5:55 PM 19.4 °F - 6.8 °F 58% 30.51 in 10.0 mi Calm Calm - N/A   Clear
6:15 PM 15.8 °F - 6.8 °F 68% 30.51 in 10.0 mi Calm Calm - N/A   Clear
6:35 PM 15.8 °F - 8.6 °F 73% 30.50 in 10.0 mi Calm Calm - N/A   Clear
6:55 PM 12.2 °F - 6.8 °F 79% 30.50 in 10.0 mi Calm Calm - N/A   Clear
7:15 PM 12.2 °F - 8.6 °F 85% 30.50 in 10.0 mi Calm Calm - N/A   Clear
7:35 PM 10.4 °F - 6.8 °F 85% 30.50 in 10.0 mi Calm Calm - N/A   Clear
7:55 PM 10.4 °F - 6.8 °F 85% 30.49 in 10.0 mi Calm Calm - N/A   Clear
8:15 PM 10.4 °F - 6.8 °F 85% 30.49 in 10.0 mi Calm Calm - N/A   Clear
8:35 PM 10.4 °F - 6.8 °F 85% 30.48 in 10.0 mi Calm Calm - N/A   Clear
8:55 PM 8.6 °F - 5.0 °F 85% 30.47 in 10.0 mi Calm Calm - N/A   Clear
9:15 PM 8.6 °F - 5.0 °F 85% 30.46 in 10.0 mi Calm Calm - N/A   Clear
9:35 PM 8.6 °F - 5.0 °F 85% 30.46 in 10.0 mi Calm Calm - N/A   Clear
9:55 PM 8.6 °F - 5.0 °F 85% 30.45 in 10.0 mi Calm Calm - N/A   Clear
10:15 PM 8.6 °F - 5.0 °F 85% 30.46 in 10.0 mi Calm Calm - N/A   Clear
10:35 PM 8.6 °F - 6.8 °F 92% 30.45 in 10.0 mi Calm Calm - N/A   Clear
10:55 PM 8.6 °F - 5.0 °F 85% 30.44 in 10.0 mi Calm Calm - N/A   Clear
11:15 PM 10.4 °F - 6.8 °F 85% 30.44 in 10.0 mi Calm Calm - N/A   Clear
11:35 PM 12.2 °F - 6.8 °F 79% 30.43 in 10.0 mi Calm Calm - N/A   Clear
11:55 PM 10.4 °F - 6.8 °F 85% 30.42 in 10.0 mi Calm Calm - N/A   Clear